Overview Statistics Trail Chart Weather Telemetry Raw packets
 

This is the latest recevied weather packets stored in our database for station/object 4S6DRJ-13. If no packets are shown the sender has not sent any weather packets the latest 10 day(s).

<< 348 349 350 351 352 353 354 >>
Time Temp. Humidity Pressure Rain* Wind** Luminosity Snow
1787945031 27.78° C 85% 1010.2 hPa 0 mm 1.79 m/s, 214° 0 W/m² -
1787944970 27.78° C 86% 1010 hPa 0 mm 1.79 m/s, 226° 0 W/m² -
1787944909 27.78° C 86% 1010 hPa 0 mm 0.89 m/s, 252° 0 W/m² -
1787944849 27.78° C 86% 1010.1 hPa 0 mm 1.79 m/s, 222° 0 W/m² -
1787944788 27.78° C 86% 1010.3 hPa 0 mm 1.79 m/s, 248° 0 W/m² -
1787944727 27.78° C 86% 1010.1 hPa 0 mm 3.13 m/s, 221° 0 W/m² -
1787944665 27.78° C 86% 1010.2 hPa 0 mm 2.68 m/s, 235° 0 W/m² -
1787944605 27.78° C 86% 1010.1 hPa 0 mm 1.34 m/s, 268° 0 W/m² -
1787944544 27.78° C 86% 1010.2 hPa 0 mm 0.45 m/s, 284° 0 W/m² -
1787944483 27.78° C 86% 1010.2 hPa 0 mm 0.45 m/s, 196° 0 W/m² -
1787944422 27.78° C 86% 1010.2 hPa 0 mm 0.89 m/s, 164° 0 W/m² -
1787944361 27.78° C 86% 1010.1 hPa 0 mm 1.79 m/s, 232° 0 W/m² -
1787944299 27.78° C 86% 1010.1 hPa 0 mm 1.34 m/s, 240° 0 W/m² -
1787944238 27.78° C 86% 1010.3 hPa 0 mm 0.89 m/s, 200° 0 W/m² -
1787944177 27.78° C 86% 1010.1 hPa 0 mm 0.45 m/s, 266° 0 W/m² -
1787944117 27.78° C 86% 1010.2 hPa 0 mm 0.89 m/s, 326° 0 W/m² -
1787944056 27.78° C 86% 1010.2 hPa 0 mm 0.89 m/s, 217° 0 W/m² -
1787943994 27.78° C 86% 1010.3 hPa 0 mm 1.34 m/s, 218° 0 W/m² -
1787943933 27.78° C 86% 1010.3 hPa 0 mm 0.89 m/s, 228° 0 W/m² -
1787943872 27.78° C 86% 1010.3 hPa 0 mm 1.34 m/s, 229° 0 W/m² -
1787943812 27.78° C 86% 1010.4 hPa 0 mm 0.45 m/s, 240° 0 W/m² -
1787943751 27.78° C 86% 1010.3 hPa 0 mm 1.34 m/s, 236° 0 W/m² -
1787943689 27.78° C 86% 1010.3 hPa 0 mm 0.89 m/s, 217° 0 W/m² -
1787943629 27.78° C 86% 1010.4 hPa 0 mm 0.89 m/s, 226° 0 W/m² -
1787943567 27.78° C 86% 1010.5 hPa 0 mm 0.45 m/s, 230° 0 W/m² -

* Rain latest hour (hover to see other rain measurements)
** Current wind speed in m/s (hover to see current wind gust speed)